Offutt Air Force Base, NE

8:47 AM CDT on August 24, 2016 (GMT -0500)
Offutt Air Force Base

Weather History for KOFF - March, 2014

Change the Weather History Date:

Sunday, March 2, 2014

  Actual Average Record
Temperature  
Mean Temperature 1 °F -  
Max Temperature 4 °F 37 °F 62 °F (2008)
Min Temperature -2 °F 21 °F -2 °F (2014)
Degree Days  
Heating Degree Days 64    
Moisture  
Dew Point -11 °F    
Average Humidity 59    
Maximum Humidity 69    
Minimum Humidity 45    
Precipitation  
Precipitation 0.00 in - - ()
Snow  
Snow 0.00 in - - ()
Snow Depth 1.00 in    
Sea Level Pressure  
Sea Level Pressure 30.63 in    
Wind  
Wind Speed 11 mph (North)    
Max Wind Speed 15 mph    
Max Gust Speed 21 mph    
Visibility 10 miles    
Events Snow    
Averages and records for this station are not official NWS values.
T = Trace of Precipitation, MM = Missing Value Source: NWS Daily Summary

Daily Weather History Graph

Daily Weather History Graph

Search for Another Location

Airport or City:

Trip Planner

Search our weather history database for the weather conditions in past years. The results will help you decide how hot, cold, wet, or windy it might be!

Date:

Astronomy

Mar. 02, 2014 Rise Set
Actual Time 6:56 AM CST 6:15 PM CST
Civil Twilight 6:28 AM CST 6:43 PM CST
Nautical Twilight 5:56 AM CST 7:15 PM CST
Astronomical Twilight 5:24 AM CST 7:47 PM CST
Moon 7:27 AM CST (3/2) 8:14 PM CST (3/2)
Length of Visible Light 12h 14m
Length of Day
11h 19m
Waxing Crescent, 3% of the Moon is Illuminated
Mar 2
Waxing Crescent
Mar 8
First Quarter
Mar 16
Full
Mar 23
Last Quarter
Mar 30
New

Hourly Weather History & Observations

Time (CST) Temp. Windchill Dew Point Humidity Pressure Visibility Wind Dir Wind Speed Gust Speed Precip Events Conditions
12:04 AM 1.4 °F -14.5 °F -7.6 °F 66% 30.49 in 10.0 mi North 10.4 mph - N/A   Overcast
12:24 AM 1.4 °F -16.1 °F -7.6 °F 66% 30.51 in 10.0 mi North 12.7 mph 19.6 mph N/A Snow Light Snow
12:40 AM 1.4 °F -16.1 °F -7.6 °F 66% 30.50 in 10.0 mi North 12.7 mph - N/A   Overcast
12:58 AM 1.6 °F -15.9 °F -7.4 °F 66% 30.61 in 10.0 mi NNW 12.7 mph - 0.00 in   Mostly Cloudy
1:04 AM 1.4 °F -15.3 °F -7.6 °F 66% 30.51 in 10.0 mi North 11.5 mph 20.7 mph N/A Snow Light Snow
1:13 AM 1.4 °F -14.5 °F -7.6 °F 66% 30.52 in 10.0 mi North 10.4 mph 20.7 mph N/A   Mostly Cloudy
1:58 AM 0.5 °F -18.0 °F -7.6 °F 69% 30.61 in 10.0 mi North 13.8 mph 18.4 mph 0.00 in   Mostly Cloudy
2:58 AM 0.3 °F -18.3 °F -8.5 °F 66% 30.62 in 10.0 mi NNW 13.8 mph 18.4 mph N/A   Mostly Cloudy
3:58 AM -0.0 °F -18.7 °F -10.5 °F 61% 30.62 in 10.0 mi North 13.8 mph 20.7 mph N/A   Overcast
4:58 AM -0.0 °F -18.0 °F -10.5 °F 61% 30.63 in 10.0 mi North 12.7 mph 20.7 mph N/A   Overcast
5:38 AM -0.4 °F -19.9 °F -9.4 °F 66% 30.54 in 10.0 mi NNW 15.0 mph 19.6 mph N/A   Mostly Cloudy
5:49 AM -0.4 °F -18.4 °F -9.4 °F 66% 30.55 in 10.0 mi NNW 12.7 mph 20.7 mph N/A   Overcast
5:58 AM -0.8 °F -18.9 °F -10.7 °F 63% 30.65 in 10.0 mi North 12.7 mph 19.6 mph 0.00 in   Overcast
6:58 AM -2.4 °F -19.2 °F -11.4 °F 66% 30.66 in 10.0 mi North 10.4 mph - N/A   Partly Cloudy
7:58 AM -2.2 °F -18.9 °F -11.2 °F 66% 30.67 in 10.0 mi North 10.4 mph - N/A   Overcast
8:58 AM -1.8 °F -18.5 °F -13.0 °F 59% 30.71 in 10.0 mi North 10.4 mph - N/A   Overcast
9:58 AM -1.7 °F -20.8 °F -13.7 °F 57% 30.70 in 10.0 mi NNW 13.8 mph - N/A   Overcast
10:58 AM -0.6 °F -16.0 °F -13.5 °F 54% 30.70 in 10.0 mi NNW 9.2 mph 20.7 mph N/A   Scattered Clouds
11:58 AM 0.9 °F -15.1 °F -14.1 °F 50% 30.70 in 10.0 mi NNE 10.4 mph - N/A   Partly Cloudy
12:58 PM 2.3 °F -11.4 °F -12.8 °F 49% 30.68 in 10.0 mi North 8.1 mph - N/A   Partly Cloudy
1:58 PM 4.5 °F -7.6 °F -12.3 °F 46% 30.66 in 10.0 mi NNW 6.9 mph - N/A   Clear
2:58 PM 4.1 °F -12.7 °F -12.8 °F 46% 30.65 in 10.0 mi NNE 12.7 mph - N/A   Clear
3:58 PM 3.4 °F -13.6 °F -13.5 °F 45% 30.63 in 10.0 mi North 12.7 mph - N/A   Clear
4:58 PM 2.5 °F -14.0 °F -13.0 °F 49% 30.63 in 10.0 mi North 11.5 mph - N/A   Clear
5:58 PM 1.6 °F -15.1 °F -13.5 °F 49% 30.62 in 10.0 mi North 11.5 mph - N/A   Clear
6:58 PM 0.7 °F -12.1 °F -13.2 °F 52% 30.64 in 10.0 mi NNW 6.9 mph - N/A   Clear
7:58 PM 0.3 °F -13.8 °F -13.7 °F 52% 30.66 in 10.0 mi North 8.1 mph - N/A   Clear
8:58 PM 0.1 °F -14.0 °F -14.1 °F 51% 30.66 in 10.0 mi North 8.1 mph - N/A   Clear
9:58 PM -0.9 °F -14.1 °F -13.0 °F 57% 30.69 in 10.0 mi North 6.9 mph - N/A   Clear
10:58 PM -1.8 °F -12.0 °F -11.7 °F 63% 30.69 in 10.0 mi North 4.6 mph - N/A   Clear
11:58 PM -1.7 °F -9.7 °F -11.9 °F 62% 30.69 in 10.0 mi NW 3.5 mph - N/A   Clear